STARLINK-1677, 46576

Orbit data source: Space-Track

STARLINK-1677, 46576 is a payload satellite owned by SpaceX/Seattle (US) in LEO that was launched on Tue, 06 Oct 2020 UTC via an FALCON 9 launch vehicle from the Air Force Eastern Test Range (AFETR). Payload-class satellites include a variety of spacecraft equipped with specific instruments for various scientific and technological missions. These include communications satellites like Starlink; space stations such as the ISS; scientific satellites like the Hubble; Earth observation satellites from companies like Planet Labs, Umbra, and HawkEye 360; GPS; miniature CubeSats for education and research; and military/defense satellites.

Loading next visibility...
Identifier
46576, 2020-070AW
Orbit
LEO
Country
Flag of USUS
Related business
Manufacturer
SpaceX/Seattle
Mission
Partially operational Commercial Communications
Bus & Motor
STARLINK, Unknown motor
Mass
260 kg wet, ~248 kg dry
Launch date (UTC)
2020-10-06 (5 years ago)
Launch vehicle
FALCON 9
Launch site
Air Force Eastern Test Range (AFETR)
Object type
Payload
Rocket body
Debris
Shape & HBR
Box + 1 Pan, 10.1 m
Radar Cross Section
13.562 m², Large (>1 m²)

Expand to show TLE details & history
Last TLE update: 2 days ago

TLE from 2 days ago
0 STARLINK-1677
1 46576U 20070AW  25306.45849095  .00054136  00000-0  17461-2 0  9997
2 46576  53.0525  10.5144 0001655  31.4851 328.6247 15.31652017280579
Epoch: 2025-11-02T11:00Z
TLE epoch observation values (Epoch: 2025-11-02T11:00:13.618Z)
Latitude
-0.00006°
Longitude
163.48368°
Altitude
470.804 km
Speed
7.632 km/s
True Right ascension
00h 42m 03s
True Declination
0° 00' 00"
Sunlit
Object was in full shadow at epoch
Visualization orbit readout
Latitude
Unknown
Longitude
Unknown
Altitude
Unknown
Speed
Unknown
Apparent Right ascension
Unknown
Apparent Declination
Unknown
Sunlit
N/A
Visualization observer readout
Local Sidereal Time
00:30:25
Azimuth
Unknown
Elevation
Unknown
Doppler factor
Unknown
Orbital elements
Apogee altitude
472.291 km
Perigee altitude
470.023 km
Semi-major axis
6,849.294 km
Eccentricity
0.00017
Inclination
53.0525°
RAAN
10.5144°
Arg. of periapsis
31.4851°
True anomaly
328.61482°
Mean anomaly
328.6247°
Eccentric anomaly
328.61976°
Mean motion
3.8289 °/min
Orbital period
94.02 mins
BSTAR
0.0017461
Loading maneuver chart data...
Computing Atmospheric mass density...

Documentation

Showing up to 5 results
|